Location: �clusier
(49.9361°N, 2.7869°E)
Time: 07:05:28
(UTC+00:00)

CARTOSAT-1 - Pass Details

Date: 16 June 2021
Orbit: 616 x 619 km, 97.8° (Epoch: 01 August)

Event Time Altitude Azimuth Distance (km) Brightness Sun altitude
Exits shadow 21:11:00 - 171° (S) 2,124 5.8 -8.7°
Reaches altitude 10° 21:11:21 10° 171° (S) 1,979 5.6 -8.7°
Maximum altitude 21:15:39 74° 257° (WSW) 648 3.7 -9.1°
Drops below altitude 10° 21:20:00 10° 343° (NNW) 1,997 7.5 -9.5°
Sets 21:22:13 0° 345° (NNW) 2,908 8.6 -9.7°
